Saginaw, MI

6:16 AM EDT on May 28, 2018 (GMT -0400)
MBS International

Weather History for KMBS - March, 2013

Change the Weather History Date:

Thursday, March 7, 2013

  Actual Average Record
Temperature  
Mean Temperature 30 °F 30 °F  
Max Temperature 34 °F 38 °F 64 °F (2012)
Min Temperature 23 °F 22 °F 3 °F (1999)
Degree Days  
Heating Degree Days 36    
Month to date heating degree days  
Since 1 July heating degree days  
Cooling Degree Days 0    
Month to date cooling degree days  
Year to date cooling degree days  
Moisture  
Dew Point 23 °F    
Average Humidity 72    
Maximum Humidity 92    
Minimum Humidity 52    
Precipitation  
Precipitation 0.00 in 0.08 in 0.78 in (2009)
Month to date precipitation 0.49  
Year to date precipitation 3.81  
Snow  
Snow 0.00 in - - ()
Month to date snowfall  
Since 1 July snowfall  
Snow Depth -    
Sea Level Pressure  
Sea Level Pressure 30.32 in    
Wind  
Wind Speed 5 mph (NNW)    
Max Wind Speed 15 mph    
Max Gust Speed -    
Visibility 8 miles    
Events Snow    
T = Trace of Precipitation, MM = Missing Value Source: NWS Daily Summary

Daily Weather History Graph

Daily Weather History Graph

Search for Another Location

Airport or City:

Astronomy

Mar. 07, 2013 Rise Set
Actual Time 7:02 AM EST 6:33 PM EST
Civil Twilight 6:33 AM EST 7:01 PM EST
Nautical Twilight 6:00 AM EST 7:34 PM EST
Astronomical Twilight 5:27 AM EST 8:08 PM EST
Moon 4:07 AM EST (3/7) 2:13 PM EST (3/7)
Length of Visible Light 12h 28m
Length of Day
11h 30m
Waning Crescent, 20% of the Moon is Illuminated
Mar 7
Waning Crescent
Mar 11
New
Mar 19
First Quarter
Mar 27
Full
Apr 3
Last Quarter

Hourly Weather History & Observations

Time (EST) Temp. Windchill Dew Point Humidity Pressure Visibility Wind Dir Wind Speed Gust Speed Precip Events Conditions
12:18 AM 33.8 °F - 28.4 °F 81% 30.21 in 4.0 mi Calm Calm - 0.00 in Snow Light Snow
12:53 AM 32.0 °F - 28.9 °F 88% 30.23 in 4.0 mi Calm Calm - 0.00 in Snow Light Snow
1:37 AM 32.0 °F 28.7 °F 28.4 °F 87% 30.21 in 6.0 mi North 3.5 mph - 0.00 in   Overcast
1:53 AM 32.0 °F - 28.9 °F 88% 30.24 in 10.0 mi Calm Calm - 0.00 in   Overcast
2:16 AM 32.0 °F 28.7 °F 28.4 °F 87% 30.21 in 10.0 mi North 3.5 mph - N/A   Overcast
2:53 AM 30.9 °F - 28.9 °F 92% 30.24 in 7.0 mi Calm Calm - N/A   Overcast
3:46 AM 32.0 °F 28.7 °F 28.4 °F 87% 30.22 in 4.0 mi NW 3.5 mph - 0.00 in Snow Light Snow
3:53 AM 32.0 °F 27.5 °F 28.9 °F 88% 30.24 in 5.0 mi NW 4.6 mph - 0.00 in Snow Light Snow
4:53 AM 33.1 °F 24.9 °F 28.0 °F 82% 30.26 in 10.0 mi NNW 10.4 mph - 0.00 in   Overcast
5:19 AM 32.0 °F 25.6 °F 28.4 °F 87% 30.24 in 1.8 mi NW 6.9 mph - 0.00 in Snow Light Snow
5:32 AM 32.0 °F 24.2 °F 28.4 °F 87% 30.24 in 2.5 mi NW 9.2 mph - 0.00 in Snow Light Snow
5:40 AM 32.0 °F 23.6 °F 28.4 °F 87% 30.25 in 3.0 mi NW 10.4 mph - 0.00 in Snow Light Snow
5:53 AM 30.9 °F 20.2 °F 27.0 °F 85% 30.28 in 7.0 mi NNW 15.0 mph - 0.00 in Snow Light Snow
6:53 AM 30.0 °F 20.0 °F 25.0 °F 82% 30.30 in 10.0 mi NNW 12.7 mph - N/A   Overcast
8:53 AM 30.0 °F 22.4 °F 23.0 °F 75% 30.34 in 10.0 mi NNW 8.1 mph - N/A   Overcast
9:26 AM 30.2 °F 22.6 °F 23.0 °F 75% 30.33 in 10.0 mi NNW 8.1 mph - N/A   Overcast
9:53 AM 30.0 °F 20.5 °F 21.9 °F 72% 30.36 in 8.0 mi NNW 11.5 mph - 0.00 in Snow Light Snow
10:53 AM 30.9 °F 24.3 °F 21.0 °F 67% 30.37 in 10.0 mi North 6.9 mph - 0.00 in   Overcast
11:43 AM 30.2 °F 21.9 °F 21.2 °F 69% 30.34 in 10.0 mi NNW 9.2 mph - N/A   Overcast
11:53 AM 32.0 °F 24.2 °F 19.9 °F 61% 30.38 in 10.0 mi North 9.2 mph - N/A   Overcast
12:15 PM 33.8 °F 27.0 °F 19.4 °F 56% 30.34 in 10.0 mi NNW 8.1 mph - N/A   Overcast
12:53 PM 33.1 °F 26.9 °F 18.0 °F 54% 30.37 in 10.0 mi WNW 6.9 mph - N/A   Mostly Cloudy
1:53 PM 34.0 °F 27.2 °F 18.0 °F 52% 30.35 in 10.0 mi North 8.1 mph - N/A   Overcast
2:53 PM 33.1 °F 25.5 °F 18.0 °F 54% 30.36 in 10.0 mi NW 9.2 mph - N/A   Mostly Cloudy
3:53 PM 34.0 °F 28.0 °F 19.0 °F 54% 30.37 in 10.0 mi North 6.9 mph - N/A   Overcast
4:53 PM 34.0 °F 31.0 °F 19.0 °F 54% 30.37 in 10.0 mi North 3.5 mph - N/A   Overcast
5:53 PM 33.1 °F 27.7 °F 19.0 °F 56% 30.38 in 10.0 mi North 5.8 mph - N/A   Overcast
6:53 PM 30.9 °F 24.3 °F 18.0 °F 59% 30.40 in 10.0 mi North 6.9 mph - N/A   Mostly Cloudy
7:53 PM 28.9 °F 25.2 °F 18.0 °F 64% 30.42 in 10.0 mi NW 3.5 mph - N/A   Clear
8:53 PM 28.9 °F 23.9 °F 16.0 °F 58% 30.43 in 10.0 mi NW 4.6 mph - N/A   Clear
9:53 PM 26.1 °F 18.4 °F 15.1 °F 63% 30.43 in 10.0 mi North 6.9 mph - N/A   Clear
10:53 PM 25.0 °F 16.3 °F 15.1 °F 66% 30.43 in 10.0 mi North 8.1 mph - N/A   Clear
11:53 PM 23.0 °F 14.7 °F 14.0 °F 68% 30.44 in 10.0 mi NNW 6.9 mph - N/A   Clear